Location: Pian di Sc�
(43.6333°N, 11.5500°E)
Time: 10:21:18
(UTC+00:00)

Cosmos 1680 Rocket - Pass Details

Date: 07 August 2020
Orbit: 760 x 780 km, 74.1° (Epoch: 18 September)

Event Time Altitude Azimuth Distance (km) Brightness Sun altitude
Rises 02:12:00 0° 335° (NNW) 3,242 7.0 -18.3°
Reaches altitude 10° 02:14:26 10° 330° (NNW) 2,309 6.2 -18.0°
Maximum altitude 02:19:30 52° 255° (WSW) 943 3.6 -17.3°
Enters shadow 02:22:51 20° 187° (S) 1,685 4.8 -16.9°
